Regional Weather Roundup
Issued by NWS

Home | Current Version | Previous Version | Graphics & Text | Print | Product List | Glossary Off
Versions: 1 2 3 4 5 6 7 8 9 10 11 12 13 14 15 16 17 18 19 20 21 22 23 24 25 26 27 28 29 30 31 32 33 34 35 36 37 38 39 40 41 42 43 44 45 46 47 48 49 50

000
ASUS43 KTOP 241508
RWRKS

WEATHER ROUNDUP FOR KANSAS
NATIONAL WEATHER SERVICE GOODLAND KS
900 AM CST FRI FEB 24 2017

NOTE:  "FAIR" INDICATES FEW OR NO CLOUDS BELOW 12,000 FEET WITH NO
SIGNIFICANT WEATHER AND/OR OBSTRUCTIONS TO VISIBILITY.

KSZ001>006-013>018-027>032-041>047-241600-
NORTHWEST KANSAS

CITY           SKY/WX    TMP DP  RH WIND       PRES   REMARKS
GOODLAND       CLOUDY    22  19  89 N17G26    29.92R WCI   8
HAYS           LGT SNOW  28  24  85 NW15      29.89R FOG     WCI  16
HILL CITY      LGT SNOW  27  23  85 N17G26    29.92R FOG     WCI  14
RUSSELL        FLURRIES  28  25  88 NW21      29.86R WCI  15
$$

KSZ061>065-074>080-084>089-241600-
SOUTHWEST KANSAS

CITY           SKY/WX    TMP DP  RH WIND       PRES   REMARKS
DODGE CITY     PTSUNNY   30  19  63 NW20G32   29.89R WCI  17
ELKHART          N/A     24   6  46 NW18        N/A  WCI  10
GARDEN CITY    CLOUDY    27  16  63 N23G38    29.92R WCI  12
GREAT BEND     CLOUDY    30  24  78 NW22      29.87R WCI  17
LIBERAL        SUNNY     28  16  59 N22G28    29.93R WCI  15
PRATT          CLOUDY    29  18  63 NW25G33   29.87R WCI  15
$$

KSZ066>073-081>083-090>101-241600-
SOUTHEAST KANSAS

CITY           SKY/WX    TMP DP  RH WIND       PRES   REMARKS
CHANUTE        CLOUDY    38  28  67 W18G25    29.76R WCI  28
COFFEYVILLE    CLOUDY    41  30  65 NW14G24   29.79R
HUTCHINSON     CLOUDY    32  23  69 NW24G31   29.83R WCI  19
MEDICINE LODGE   N/A     35  22  58 NW15G30   29.87R WCI  25
NEWTON         CLOUDY    33  24  69 NW24G32   29.80R WCI  20
PARSONS        CLOUDY    39  29  67 NW18G26   29.78R WCI  30
WICHITA INTL   CLOUDY    35  25  66 NW22G30   29.82R WCI  23
WICHITA JABRA  CLOUDY    34  25  69 NW18G29   29.81R WCI  23
WICHITA MCCONL PTSUNNY   35  24  63 NW20G29   29.81R WCI  24
WINFIELD       PTSUNNY   39  27  62 NW18      29.84R WCI  30
$$

KSZ007>012-019>026-033>040-048>060-102>105-241600-
NORTHEAST KANSAS

CITY           SKY/WX    TMP DP  RH WIND       PRES   REMARKS
CONCORDIA      LGT SNOW  28  26  92 N14G26    29.81R FOG     WCI  17
EMPORIA        PTSUNNY   35  29  78 W20G29    29.74R WCI  24
LAWRENCE       CLOUDY    38  36  92 W15       29.69R WCI  29
MANHATTAN      CLOUDY    34  31  88 NW7       29.76R FOG
MARYSVILLE     MIX PCPN  30  30 100 N17G26    29.75R WCI  18
OLATHE IND     CLOUDY    37  35  92 W14       29.68R WCI  28
OLATHE EXE     CLOUDY    36  36 100 W9G17     29.67R
SALINA         MIX PCPN  33  30  88 NW18      29.82R FOG     WCI  22
TOPEKA BILLARD CLOUDY    37  37 100 W8        29.70R FOG
TOPEKA FORBES  CLOUDY    37  34  89 W14       29.70R FOG     WCI  28
$$




USA.gov is the U.S. government's official web portal to all federal, state and local government web resources and services.